Zurück zum Katalog

STARLINK-38299

AktivKommunikationSSO
NORAD 100316·PAYLOAD·🇺🇸 United States

Gestartet Aug 12, 2026 von Vandenberg Space Force Base

Loading…

Nächste Überflüge (nächste 24 Stunden)

TLE

AktuellSource: Space-Track

Epoche: Sep 14, 2026, 15:25 UTC

1 A0316U 26184R   26257.64285639 -.00022240  00000-0 -68846-3 0  9993
2 A0316  97.2839 122.8599 0001258 110.8052 249.3326 15.33449719  6460

Verfolge STARLINK-38299 in Echtzeit mit AllMySat

Download on the App Store